EW9451 Weather Reports


Display with metric or nautical units.
time (UTC)temp
F
wind
direction
speed
MPH
gust
MPH
rain 1hr
in
rain 24hr
in
rain mn
in
humidity
%
barometer
mb
20260906090507 55 277 0.0 1.0 0.00 0.05 0.01 97 1009.7
20260906090007 55 277 0.0 1.0 0.00 0.05 0.01 97 1009.7
20260906085506 55 277 0.0 1.0 0.00 0.05 0.01 97 1009.7
20260906085006 55 277 0.0 1.0 0.00 0.05 0.01 97 1009.6
20260906084510 55 277 0.0 1.0 0.00 0.05 0.01 97 1009.6
20260906084006 55 300 0.0 1.0 0.00 0.05 0.01 96 1009.5
20260906083505 55 271 0.0 2.0 0.00 0.05 0.01 96 1009.5
20260906083005 55 235 0.0 1.0 0.00 0.05 0.01 96 1009.5
20260906082505 55 267 0.0 2.0 0.00 0.05 0.01 96 1009.5
20260906082004 55 266 0.0 2.0 0.00 0.05 0.01 96 1009.5
20260906081504 55 242 0.0 2.0 0.00 0.05 0.01 96 1009.5
20260906081003 55 223 0.0 3.0 0.00 0.05 0.01 96 1009.5
20260906080503 55 219 0.0 3.0 0.01 0.05 0.01 96 1009.4
20260906080002 55 240 0.0 2.0 0.01 0.05 0.01 96 1009.4
20260906075502 55 275 0.0 0.0 0.01 0.05 0.01 96 1009.3
20260906075001 55 275 0.0 0.0 0.01 0.05 0.01 96 1009.2
20260906074601 55 275 0.0 0.0 0.01 0.05 0.01 96 1009.2
20260906074101 55 275 0.0 1.0 0.01 0.05 0.01 96 1009.2
20260906073603 55 275 0.0 1.0 0.01 0.05 0.01 96 1009.1
20260906073100 55 294 0.0 1.0 0.01 0.05 0.01 96 1009.1
20260906072600 55 249 0.0 2.0 0.01 0.05 0.01 96 1009.1
20260906072059 55 263 0.0 2.0 0.01 0.05 0.01 96 1009.1
20260906071601 55 260 1.0 2.0 0.01 0.05 0.01 96 1009.1
20260906071059 55 295 0.0 0.0 0.01 0.05 0.01 96 1009.1
20260906070558 55 296 0.0 2.0 0.00 0.04 0.00 96 1009.0
20260906070057 55 228 0.0 2.0 0.00 0.04 0.00 96 1009.1
20260906065558 55 232 0.0 1.0 0.00 0.04 0.00 96 1009.0
20260906065057 55 232 0.0 1.0 0.00 0.04 0.00 96 1009.0
20260906064556 55 177 0.0 1.0 0.00 0.04 0.00 96 1009.0
20260906064059 55 177 0.0 1.0 0.00 0.04 0.00 96 1008.9
20260906063555 55 205 0.0 1.0 0.00 0.04 0.00 96 1008.9
20260906063056 55 205 0.0 2.0 0.00 0.04 0.00 96 1009.0
20260906062556 55 205 0.0 2.0 0.00 0.04 0.00 96 1009.0
20260906062054 55 126 0.0 0.0 0.00 0.04 0.00 96 1009.4
20260906061555 55 126 0.0 2.0 0.00 0.04 0.00 96 1008.8
20260906061054 55 126 0.0 4.0 0.00 0.04 0.00 96 1008.9
20260906060554 55 71 1.0 4.0 0.00 0.04 0.00 96 1008.9
20260906060125 55 222 0.0 1.0 0.00 0.04 0.00 96 1008.9
20260906055553 55 222 0.0 1.0 0.00 0.04 0.00 96 1008.9
20260906055052 55 209 0.0 0.0 0.00 0.04 0.00 96 1008.9
20260906054607 55 209 0.0 1.0 0.00 0.04 0.00 96 1008.9
20260906054051 55 209 0.0 1.0 0.00 0.04 0.00 96 1008.9
20260906053550 55 253 0.0 2.0 0.00 0.04 0.00 96 1008.8
20260906053050 55 253 0.0 3.0 0.00 0.04 0.00 96 1008.8
20260906052551 56 258 1.0 3.0 0.00 0.04 0.00 96 1008.8
20260906052050 56 257 0.0 2.0 0.00 0.04 0.00 96 1008.8
20260906051549 56 257 0.0 2.0 0.00 0.04 0.00 96 1008.8
20260906051055 56 240 0.0 1.0 0.00 0.04 0.00 96 1008.7
20260906050550 56 148 0.0 0.0 0.00 0.04 0.00 96 1008.7
20260906050047 56 148 0.0 0.0 0.00 0.04 0.00 95 1008.7
20260906045547 56 148 0.0 2.0 0.00 0.04 0.00 95 1008.7
20260906045046 56 148 0.0 2.0 0.00 0.04 0.00 95 1008.7
20260906044546 56 117 0.0 2.0 0.00 0.04 0.00 95 1008.7
20260906044048 56 211 0.0 1.0 0.00 0.04 0.00 95 1008.7
20260906043545 56 236 0.0 2.0 0.00 0.04 0.00 95 1008.7
20260906043047 56 236 0.0 3.0 0.00 0.04 0.00 95 1008.7
20260906042544 56 212 0.0 3.0 0.00 0.04 0.00 95 1008.7
20260906042045 56 265 0.0 3.0 0.00 0.04 0.00 95 1008.6
20260906041544 56 319 0.0 3.0 0.00 0.04 0.00 95 1008.7
20260906041044 56 269 1.0 3.0 0.00 0.04 0.00 95 1008.6
20260906040543 56 240 1.0 3.0 0.01 0.04 0.00 95 1008.6
20260906040042 56 193 0.0 3.0 0.01 0.04 0.00 94 1008.5
20260906035544 56 204 0.0 1.0 0.01 0.04 0.04 94 1008.4
20260906035041 56 325 0.0 2.0 0.01 0.04 0.04 94 1008.4
20260906034554 56 350 0.0 3.0 0.01 0.04 0.04 95 1008.5
20260906034039 57 350 0.0 3.0 0.01 0.04 0.04 95 1008.4
20260906033539 57 296 1.0 2.0 0.01 0.04 0.04 95 1008.3
20260906033040 57 287 0.0 1.0 0.01 0.04 0.04 95 1008.2
20260906032538 57 189 0.0 3.0 0.01 0.04 0.04 95 1008.1
20260906032038 57 121 0.0 3.0 0.01 0.04 0.04 95 1008.1
20260906031538 57 153 0.0 3.0 0.01 0.04 0.04 95 1008.1
20260906031038 57 148 1.0 3.0 0.01 0.04 0.04 95 1008.2
20260906030537 57 248 0.0 5.0 0.00 0.03 0.03 95 1008.4
20260906030037 58 288 1.0 5.0 0.00 0.03 0.03 95 1008.6
20260906025535 58 250 1.0 5.0 0.00 0.03 0.03 95 1008.6
20260906025036 58 303 1.0 5.0 0.00 0.03 0.03 95 1008.7
20260906024536 58 257 1.0 3.0 0.00 0.03 0.03 95 1008.7
20260906024032 58 245 0.0 3.0 0.00 0.03 0.03 95 1008.6
20260906023531 59 261 0.0 2.0 0.00 0.03 0.03 95 1008.5
20260906023032 59 217 0.0 3.0 0.00 0.03 0.03 96 1008.4
20260906022530 59 194 0.0 3.0 0.00 0.03 0.03 96 1008.5
20260906022031 59 295 1.0 2.0 0.00 0.03 0.03 96 1008.6
20260906021538 59 294 0.0 2.0 0.00 0.03 0.03 96 1008.6
20260906021029 59 349 0.0 2.0 0.00 0.03 0.03 96 1008.6
20260906020530 59 278 0.0 2.0 0.00 0.03 0.03 96 1008.6
20260906020028 59 278 0.0 2.0 0.00 0.03 0.03 96 1008.6
20260906015529 59 294 0.0 2.0 0.00 0.03 0.03 96 1008.6
20260906015028 60 278 0.0 1.0 0.00 0.03 0.03 96 1008.6
20260906014528 60 294 0.0 2.0 0.00 0.03 0.03 96 1008.7
20260906014030 60 263 0.0 2.0 0.00 0.03 0.03 96 1008.7
20260906013527 60 263 0.0 2.0 0.00 0.03 0.03 96 1008.7
20260906013027 60 263 0.0 2.0 0.00 0.03 0.03 96 1008.6
20260906012529 60 259 0.0 2.0 0.00 0.03 0.03 96 1008.5
20260906012026 60 240 0.0 2.0 0.00 0.03 0.03 96 1008.7
20260906011527 60 240 0.0 0.0 0.00 0.03 0.03 96 1008.5
20260906011027 60 240 0.0 1.0 0.00 0.03 0.03 95 1008.6
20260906010526 60 240 0.0 1.0 0.00 0.03 0.03 95 1008.5
20260906010026 60 240 0.0 0.0 0.00 0.03 0.03 95 1008.5
20260906005525 60 240 0.0 0.0 0.00 0.03 0.03 95 1008.4
20260906005025 60 240 0.0 0.0 0.00 0.03 0.03 95 1008.4
20260906004524 60 240 0.0 0.0 0.00 0.03 0.03 95 1008.3
20260906004023 60 240 0.0 0.0 0.00 0.03 0.03 95 1008.3
20260906003522 60 240 0.0 0.0 0.00 0.03 0.03 95 1008.2
20260906003022 60 240 0.0 0.0 0.00 0.03 0.03 95 1008.2
20260906002521 60 240 0.0 0.0 0.00 0.03 0.03 95 1008.1
20260906002021 60 240 0.0 1.0 0.00 0.03 0.03 95 1008.0
20260906001539 60 240 0.0 3.0 0.00 0.03 0.03 95 1008.0
20260906001020 60 232 0.0 3.0 0.00 0.03 0.03 95 1008.1
20260906000521 60 292 0.0 2.0 0.00 0.03 0.03 95 1008.0
20260906000021 60 273 0.0 2.0 0.00 0.03 0.03 95 1008.0
20260905235520 60 273 0.0 2.0 0.01 0.03 0.03 95 1008.0
20260905235020 60 273 0.0 2.0 0.01 0.03 0.03 95 1008.0
20260905234519 61 249 0.0 2.0 0.01 0.03 0.03 95 1008.0
20260905234018 61 249 0.0 3.0 0.01 0.03 0.03 95 1007.9
20260905233519 61 275 1.0 3.0 0.01 0.03 0.03 94 1007.9
20260905233021 61 275 0.0 2.0 0.01 0.03 0.03 94 1007.8
20260905232523 61 275 0.0 1.0 0.01 0.03 0.03 94 1007.7
20260905232019 61 232 0.0 0.0 0.01 0.03 0.03 94 1007.7
20260905231522 61 232 0.0 1.0 0.01 0.03 0.03 94 1007.7
20260905231021 61 248 0.0 1.0 0.01 0.03 0.03 94 1007.6
20260905230517 61 262 0.0 3.0 0.01 0.03 0.03 94 1007.7
20260905230021 61 132 0.0 3.0 0.01 0.03 0.03 93 1007.7
20260905225520 61 275 0.0 3.0 0.00 0.02 0.02 93 1007.8
20260905225017 61 203 0.0 3.0 0.00 0.02 0.02 93 1007.8
20260905224521 62 348 0.0 3.0 0.00 0.02 0.02 93 1007.9
20260905224015 62 281 0.0 2.0 0.00 0.02 0.02 93 1007.8
20260905223513 62 90 0.0 4.0 0.00 0.02 0.02 93 1007.6
20260905223030 62 229 0.0 4.0 0.00 0.02 0.02 92 1007.6
20260905222513 62 232 0.0 4.0 0.00 0.02 0.02 92 1007.6
20260905222013 62 270 0.0 2.0 0.00 0.02 0.02 93 1007.6
20260905221512 62 257 0.0 1.0 0.00 0.02 0.02 92 1007.4
20260905221011 62 240 0.0 1.0 0.02 0.02 0.02 92 1007.4
20260905220514 62 256 0.0 4.0 0.02 0.02 0.02 92 1007.3
20260905220011 63 280 0.0 4.0 0.02 0.02 0.02 91 1007.3
20260905215511 63 250 0.0 4.0 0.02 0.02 0.02 91 1007.2
20260905215110 63 355 0.0 4.0 0.02 0.02 0.02 90 1007.2
20260905214512 64 242 0.0 3.0 0.02 0.02 0.02 90 1007.1
20260905214008 64 265 0.0 4.0 0.02 0.02 0.02 89 1007.0
20260905213509 64 211 1.0 4.0 0.02 0.02 0.02 89 1007.0
20260905213008 65 106 0.0 2.0 0.02 0.02 0.02 88 1006.9
20260905212508 65 290 0.0 3.0 0.02 0.02 0.02 85 1006.9
20260905212006 67 37 0.0 5.0 0.02 0.02 0.02 85 1006.9
20260905211506 68 36 0.0 5.0 0.02 0.02 0.02 84 1006.8
20260905211005 68 17 2.0 8.0 0.00 0.00 0.00 84 1006.6
20260905210505 68 14 2.0 8.0 0.00 0.00 0.00 83 1006.6
20260905210005 68 234 2.0 6.0 0.00 0.00 0.00 82 1006.5
20260905205506 68 242 1.0 4.0 0.00 0.00 0.00 82 1006.5
20260905205006 68 349 1.0 4.0 0.00 0.00 0.00 83 1006.5
20260905204504 67 5 1.0 5.0 0.00 0.00 0.00 86 1006.4
20260905204004 65 321 1.0 5.0 0.00 0.00 0.00 88 1006.4
20260905203506 64 287 1.0 4.0 0.00 0.00 0.00 88 1006.5
20260905203004 64 305 1.0 4.0 0.00 0.00 0.00 88 1006.5
20260905202503 64 245 1.0 3.0 0.00 0.00 0.00 88 1006.5
20260905202004 64 264 1.0 3.0 0.00 0.00 0.00 89 1006.5
20260905201504 64 269 0.0 2.0 0.00 0.00 0.00 89 1006.5
20260905201003 64 271 0.0 3.0 0.00 0.00 0.00 88 1006.5
20260905200503 64 261 0.0 4.0 0.00 0.00 0.00 88 1006.5
20260905200003 64 278 0.0 5.0 0.00 0.00 0.00 87 1006.5
20260905195503 65 290 1.0 8.0 0.00 0.00 0.00 86 1006.5
20260905195006 66 280 2.0 8.0 0.00 0.00 0.00 85 1006.5
20260905194502 66 225 1.0 6.0 0.00 0.00 0.00 83 1006.4
20260905194002 66 275 1.0 9.0 0.00 0.00 0.00 84 1006.3
20260905193502 65 245 1.0 4.0 0.00 0.00 0.00 83 1006.3
20260905193007 65 336 0.0 4.0 0.00 0.00 0.00 84 1006.3
20260905192502 65 348 1.0 4.0 0.00 0.00 0.00 82 1006.4
20260905192001 65 216 2.0 4.0 0.00 0.00 0.00 84 1006.5
20260905191501 66 235 1.0 7.0 0.00 0.00 0.00 84 1006.5
20260905191001 66 248 2.0 7.0 0.00 0.00 0.00 83 1006.3
20260905190602 66 19 2.0 7.0 0.00 0.00 0.00 84 1006.3
20260905190101 66 294 1.0 6.0 0.00 0.00 0.00 84 1006.3
20260905185600 66 247 1.0 6.0 0.00 0.00 0.00 83 1006.3
20260905185059 66 279 1.0 6.0 0.00 0.00 0.00 84 1006.4
20260905184608 66 173 2.0 9.0 0.00 0.00 0.00 83 1006.4
20260905184059 66 284 2.0 9.0 0.00 0.00 0.00 84 1006.4
20260905183559 66 241 1.0 6.0 0.00 0.00 0.00 84 1006.4
20260905183059 66 286 2.0 8.0 0.00 0.00 0.00 84 1006.5
20260905182559 67 273 1.0 3.0 0.00 0.00 0.00 84 1006.5
20260905182059 68 293 1.0 8.0 0.00 0.00 0.00 83 1006.5
20260905181559 68 343 3.0 8.0 0.00 0.00 0.00 82 1006.4
20260905181058 68 323 1.0 5.0 0.00 0.00 0.00 82 1006.3
20260905180558 68 271 1.0 5.0 0.00 0.00 0.00 83 1006.4
20260905180056 68 312 1.0 7.0 0.00 0.00 0.00 82 1006.3
20260905175557 67 317 2.0 7.0 0.00 0.00 0.00 81 1006.4
20260905175056 67 294 1.0 7.0 0.00 0.00 0.00 83 1006.4
20260905174555 67 309 1.0 5.0 0.00 0.00 0.00 81 1006.4
20260905174054 67 259 2.0 6.0 0.00 0.00 0.00 82 1006.5
20260905173555 67 256 2.0 6.0 0.00 0.00 0.00 80 1006.5
20260905173055 67 286 2.0 6.0 0.00 0.00 0.00 82 1006.6
20260905172553 66 321 1.0 4.0 0.00 0.00 0.00 86 1006.5
20260905172053 65 263 1.0 4.0 0.00 0.00 0.00 87 1006.6
20260905171553 65 309 0.0 3.0 0.00 0.00 0.00 87 1006.5
20260905171052 65 336 1.0 4.0 0.00 0.00 0.00 87 1006.6
20260905170552 64 322 1.0 4.0 0.00 0.00 0.00 85 1006.6
20260905170053 65 316 2.0 7.0 0.00 0.00 0.00 84 1006.6
20260905165551 65 280 2.0 7.0 0.00 0.00 0.00 82 1006.6
20260905165051 66 275 1.0 7.0 0.00 0.00 0.00 80 1006.6
20260905164551 67 255 2.0 7.0 0.00 0.00 0.00 83 1006.5
20260905164050 66 260 2.0 6.0 0.00 0.00 0.00 80 1006.6
20260905163550 66 267 1.0 4.0 0.00 0.00 0.00 81 1006.5
20260905163050 66 16 1.0 4.0 0.00 0.00 0.00 81 1006.6
20260905162550 66 332 0.0 4.0 0.00 0.00 0.00 81 1006.6
20260905162050 66 225 1.0 5.0 0.00 0.00 0.00 79 1006.6
20260905161549 66 313 2.0 5.0 0.00 0.00 0.00 81 1006.6
20260905161049 66 146 0.0 2.0 0.00 0.00 0.00 84 1006.6
20260905160549 65 163 0.0 3.0 0.00 0.00 0.00 84 1006.7
20260905160050 65 280 0.0 4.0 0.00 0.00 0.00 83 1006.7
20260905155547 65 246 1.0 5.0 0.00 0.00 0.00 81 1006.8
20260905155047 66 157 2.0 6.0 0.00 0.00 0.00 81 1006.7
20260905154551 66 293 2.0 6.0 0.00 0.00 0.00 81 1006.7
20260905154050 66 325 0.0 3.0 0.00 0.00 0.00 83 1006.7
20260905153548 65 179 1.0 9.0 0.00 0.00 0.00 84 1006.6
20260905153045 65 274 2.0 9.0 0.00 0.00 0.00 84 1006.6
20260905152546 65 281 0.0 8.0 0.00 0.00 0.00 85 1006.5
20260905152044 64 238 1.0 8.0 0.00 0.00 0.00 86 1006.6
20260905151555 64 284 2.0 7.0 0.00 0.00 0.00 85 1006.6
20260905151044 65 311 1.0 5.0 0.00 0.00 0.00 84 1006.6
20260905150544 65 268 2.0 7.0 0.00 0.00 0.00 85 1006.6
20260905150048 65 259 2.0 7.0 0.00 0.00 0.00 84 1006.7
20260905145546 65 305 1.0 9.0 0.00 0.00 0.00 85 1006.7
20260905145043 65 261 2.0 9.0 0.00 0.00 0.00 84 1006.6
20260905144547 65 248 3.0 8.0 0.00 0.00 0.00 83 1006.5
20260905144041 65 288 1.0 7.0 0.00 0.00 0.00 83 1006.4
20260905143540 65 303 1.0 7.0 0.00 0.00 0.00 84 1006.4
20260905143040 65 257 2.0 8.0 0.00 0.00 0.00 85 1006.4
20260905142543 64 253 1.0 8.0 0.00 0.00 0.00 85 1006.4
20260905142039 64 262 2.0 7.0 0.00 0.00 0.00 86 1006.5
20260905141539 64 274 2.0 7.0 0.00 0.00 0.00 84 1006.4
20260905141038 65 249 2.0 6.0 0.00 0.00 0.00 85 1006.4
20260905140537 64 212 2.0 5.0 0.00 0.00 0.00 87 1006.3
20260905140038 64 209 2.0 5.0 0.00 0.00 0.00 88 1006.5
20260905135534 63 305 1.0 5.0 0.00 0.00 0.00 88 1006.4
20260905135033 63 266 2.0 5.0 0.00 0.00 0.00 88 1006.4
20260905134538 63 281 0.0 7.0 0.00 0.00 0.00 89 1006.3
20260905134037 63 300 0.0 7.0 0.00 0.00 0.00 89 1006.3
20260905133532 63 272 2.0 5.0 0.00 0.00 0.00 89 1006.3
20260905133032 62 259 0.0 8.0 0.00 0.00 0.00 89 1006.2
20260905132531 62 271 1.0 8.0 0.00 0.00 0.00 90 1006.1
20260905132030 62 306 2.0 4.0 0.00 0.00 0.00 91 1006.2
20260905131528 62 67 1.0 3.0 0.00 0.00 0.00 91 1006.1
20260905131030 62 225 1.0 6.0 0.00 0.00 0.00 92 1006.2
20260905130527 62 273 2.0 6.0 0.00 0.00 0.00 92 1006.1
20260905130026 62 288 0.0 5.0 0.00 0.00 0.00 93 1006.1
20260905125526 62 271 1.0 4.0 0.00 0.00 0.00 93 1006.0
20260905125028 61 288 2.0 6.0 0.00 0.00 0.00 94 1006.1
20260905124527 61 275 1.0 6.0 0.00 0.00 0.00 95 1006.0
20260905124024 61 280 1.0 4.0 0.00 0.00 0.00 95 1006.0
20260905123526 61 272 0.0 6.0 0.00 0.00 0.00 95 1005.9
20260905123052 61 263 2.0 6.0 0.00 0.00 0.00 95 1005.8
20260905122523 61 246 2.0 5.0 0.00 0.00 0.00 96 1005.9
20260905122022 61 266 2.0 4.0 0.00 0.00 0.00 97 1005.8
20260905121521 61 236 1.0 4.0 0.00 0.00 0.00 97 1005.7
20260905121021 61 259 1.0 4.0 0.00 0.00 0.00 96 1005.6
20260905120521 60 305 1.0 3.0 0.00 0.00 0.00 96 1005.7
20260905120027 60 293 0.0 3.0 0.00 0.00 0.00 96 1005.7
20260905115524 60 277 1.0 3.0 0.00 0.00 0.00 96 1005.8
20260905115022 60 240 0.0 4.0 0.00 0.00 0.00 96 1005.8
20260905114521 60 262 1.0 4.0 0.00 0.00 0.00 96 1005.7
20260905114020 60 277 1.0 4.0 0.00 0.00 0.00 96 1005.7
20260905113520 60 290 1.0 4.0 0.00 0.00 0.00 96 1005.7
20260905113025 60 243 1.0 4.0 0.00 0.00 0.00 96 1005.6
20260905112518 60 330 1.0 3.0 0.00 0.00 0.00 96 1005.5
20260905112017 60 269 0.0 3.0 0.00 0.00 0.00 96 1005.5
20260905111516 60 259 0.0 2.0 0.00 0.00 0.00 96 1005.5
20260905111015 60 239 0.0 2.0 0.00 0.00 0.00 96 1005.4
20260905110517 60 252 0.0 2.0 0.00 0.00 0.00 96 1005.4
20260905110015 60 258 0.0 5.0 0.00 0.00 0.00 96 1005.2
20260905105514 60 298 0.0 5.0 0.00 0.00 0.00 96 1005.3
20260905105013 60 348 1.0 3.0 0.00 0.00 0.00 95 1005.1
20260905104513 60 299 1.0 3.0 0.00 0.00 0.00 95 1005.1
20260905104013 60 261 0.0 3.0 0.00 0.00 0.00 95 1005.1
20260905103514 60 298 0.0 2.0 0.00 0.00 0.00 95 1005.1
20260905103012 60 294 0.0 2.0 0.00 0.00 0.00 95 1005.1
20260905102512 60 317 0.0 2.0 0.00 0.00 0.00 95 1005.0
20260905102011 60 271 0.0 3.0 0.00 0.00 0.00 95 1005.0
20260905101510 60 280 1.0 3.0 0.00 0.00 0.00 95 1005.0
20260905101011 60 276 1.0 2.0 0.00 0.00 0.00 95 1005.1
20260905100511 60 266 0.0 2.0 0.00 0.00 0.00 95 1005.0
20260905100010 60 302 0.0 2.0 0.00 0.00 0.00 95 1005.0
20260905095510 60 318 0.0 1.0 0.00 0.00 0.00 95 1005.0
20260905095009 60 318 0.0 1.0 0.00 0.00 0.00 95 1005.0
20260905094509 60 259 0.0 1.0 0.00 0.00 0.00 95 1004.9
20260905094009 60 259 0.0 2.0 0.00 0.00 0.00 95 1004.9
20260905093512 60 337 0.0 4.0 0.00 0.00 0.00 95 1004.9
20260905093009 60 262 1.0 4.0 0.00 0.00 0.00 95 1004.9
20260905092511 60 312 0.0 2.0 0.00 0.00 0.00 95 1005.0
20260905092009 60 312 0.0 2.0 0.00 0.00 0.00 95 1005.0
20260905091508 60 68 0.0 2.0 0.00 0.00 0.00 95 1004.9
20260905091008 60 328 0.0 0.0 0.00 0.00 0.00 95 1004.9